Weather in Osinovskiy

Russia / Saratov Oblast     51°34′34″N   46°48′23″E
temp.,
°C
wind,
m/s
gust,
m/s
humid.,
%
clouds,
%
prec.,
mm/h
press.,
hPa
HPBL,
m
23 october, sat
sat2301:00+12sw6137851 0.0 1012358
04:00+10sw51187100 0.0 1013242
07:00+9sw4986100 0.0 1013178
10:00+13sw5116468 0.0 1014369
13:00+16sw686143 0.0 1014716
16:00+16wsw465599 0.0 1014815
19:00+13s3466100 0.0 101456
22:00+13sw41076100 0.6 1013333
24 october, sun
sun2401:00+11wsw4988100 2.5 1013436
04:00+11wsw6108093 3.1 1013500
07:00+7wnw497320 0.0 1014237
10:00+9wnw47595 0.0 1016516
13:00+11w5649100 0.0 10161210
16:00+10w454414 0.0 10161270
19:00+8wnw3555100 0.0 1016100
22:00+7w3460100 0.0 101689
25 october, mon
mon2501:00+7w2364100 0.0 101551
04:00+6w2365100 0.0 101549
07:00+5nw477190 0.0 1016218
10:00+5nnw67736 0.0 1017587
13:00+6nnw6660100 0.0 10181245
16:00+6nnw7857100 0.0 10191440
19:00+4n71179100 0.0 1022924
22:00+2n6117013 0.0 1025783
26 october, tue
tue2601:00+1n611630 0.0 1027520
04:00−1nnw51069100 0.0 1028311
07:00−1nnw496893 0.0 1030278
10:00+2nnw46530 0.0 1031351
13:00+5nw34355 0.0 1030798
16:00+6w453037 0.0 1029966
19:00+3w364032 0.0 1030111
22:00+2wsw484725 0.0 1029152
27 october, wed
wed2701:00+1wsw485431 0.0 1029141
04:00+1wsw49589 0.0 1028151
07:000wsw49596 0.0 1028160
10:00+4wsw6104456 0.0 1028382
13:00+8wsw7931100 0.0 1027697
16:00+9wsw6930100 0.0 1025739
19:00+5sw41041100 0.0 1025191
22:00+4sw51142100 0.0 1023238